Weather History for Mayo, YT

Change the Weather History Date:

Saturday, February 2, 2013

  Actual Average Record
Temperature  
Mean Temperature 12 °F -  
Max Temperature 19 °F 9 °F 41 °F (2012)
Min Temperature 5 °F -13 °F -52 °F (2008)
Degree Days  
Heating Degree Days 53    
Moisture  
Dew Point 11 °F    
Average Humidity 86    
Maximum Humidity 93    
Minimum Humidity 78    
Precipitation  
Precipitation 0.02 in 0.02 in - ()
Sea Level Pressure  
Sea Level Pressure 30.00 in    
Wind  
Wind Speed 5 mph ()    
Max Wind Speed 12 mph    
Max Gust Speed -    
Visibility 13.8 miles    
Events Snow    
Averages and records for this station are not official NWS values.
T = Trace of Precipitation, MM = Missing Value Source: Averaged Metar Reports

Daily Weather History Graph

Daily Weather History Graph

Search for Another Location

Airport:

Trip Planner

Search our weather history database for the weather conditions in past years. The results will help you decide how hot, cold, wet, or windy it might be!

Date:

Astronomy

Feb. 02, 2013 Rise Set
Actual Time 9:35 AM PST 5:00 PM PST
Civil Twilight 8:40 AM PST 5:54 PM PST
Nautical Twilight 7:43 AM PST 6:52 PM PST
Astronomical Twilight 6:48 AM PST 7:46 PM PST
Moon 1:48 AM PST (2/2) 10:09 AM PST (2/2)
Length of Visible Light 9h 14m
Length of Day
7h 24m
Waning Gibbous, 58% of the Moon is Illuminated
Feb 2
Waning Gibbous
Feb 3
Last Quarter
Feb 9
New
Feb 17
First Quarter
Feb 25
Full

Hourly Weather History & Observations

Time (PST) Temp. Windchill Dew Point Humidity Pressure Visibility Wind Dir Wind Speed Gust Speed Precip Events Conditions
12:00 AM 6.8 °F - 1.4 °F 79% 30.25 in 20.0 mi Calm Calm - N/A   Overcast
1:00 AM 8.6 °F - 3.2 °F 79% 30.24 in 20.0 mi Calm Calm - N/A   Overcast
2:00 AM 6.8 °F -0.1 °F 3.2 °F 85% 30.21 in 20.0 mi ESE 3.5 mph - N/A   Overcast
3:00 AM 5.0 °F - -0.4 °F 78% 30.20 in 20.0 mi Calm Calm - N/A   Overcast
5:00 AM 10.4 °F -2.4 °F 6.8 °F 85% 30.14 in 20.0 mi ENE 9.2 mph - N/A   Overcast
6:00 AM 10.4 °F 0.8 °F 5.0 °F 79% 30.11 in 20.0 mi ENE 5.8 mph - N/A   Overcast
7:00 AM 12.2 °F 2.9 °F 8.6 °F 85% 30.08 in 20.0 mi NE 5.8 mph - N/A   Overcast
8:00 AM 12.2 °F -0.2 °F 8.6 °F 85% 30.06 in 20.0 mi ENE 9.2 mph - N/A   Overcast
9:00 AM 14.0 °F 3.9 °F 10.4 °F 86% 30.04 in 20.0 mi ENE 6.9 mph - N/A   Overcast
10:00 AM 14.0 °F 6.5 °F 10.4 °F 86% 30.02 in 20.0 mi ENE 4.6 mph - N/A   Overcast
11:00 AM 14.0 °F - 10.4 °F 86% 30.00 in 20.0 mi ENE 2.3 mph - N/A   Overcast
12:00 PM 15.8 °F 7.2 °F 10.4 °F 79% 29.99 in 20.0 mi NE 5.8 mph - N/A   Overcast
12:45 PM - - - N/A% - 10.0 mi ENE 4.6 mph - N/A   Unknown
1:00 PM 15.8 °F 8.6 °F 14.0 °F 93% 29.96 in 5.0 mi NNE 4.6 mph - N/A Snow Light Snow
1:31 PM - - - N/A% - 1.5 mi NE 4.6 mph - N/A   Unknown
2:00 PM 17.6 °F 7.3 °F 14.0 °F 86% 29.94 in 1.8 mi ENE 8.1 mph - N/A Snow Light Snow
3:00 PM 17.6 °F 9.3 °F 14.0 °F 86% 29.93 in 2.5 mi ENE 5.8 mph - N/A Snow Light Snow
3:28 PM - - - N/A% - 3.0 mi NNE 5.8 mph - N/A   Unknown
4:00 PM 17.6 °F 6.4 °F 15.8 °F 93% 29.91 in 10.0 mi NE 9.2 mph - N/A Snow Light Snow
4:16 PM - - - N/A% - 2.0 mi NE 10.4 mph - N/A   Unknown
4:32 PM - - - N/A% - 0.5 mi ENE 11.5 mph - N/A   Unknown
4:51 PM - - - N/A% - 5.0 mi NE 9.2 mph - N/A   Unknown
5:00 PM 19.4 °F 9.5 °F 15.8 °F 86% 29.89 in 5.0 mi ENE 8.1 mph - N/A Snow Light Snow
5:27 PM - - - N/A% - 20.0 mi NNE 11.5 mph - N/A   Unknown
6:00 PM 19.4 °F 10.4 °F 17.6 °F 93% 29.88 in 20.0 mi ENE 6.9 mph - N/A   Overcast
7:00 PM 19.4 °F 11.5 °F 15.8 °F 86% 29.85 in 20.0 mi NE 5.8 mph - N/A   Overcast
7:50 PM - - - N/A% - 20.0 mi NE 6.9 mph - N/A   Unknown
8:00 PM 17.6 °F 8.2 °F 15.8 °F 93% 29.84 in 20.0 mi NE 6.9 mph - N/A Snow Light Snow
9:00 PM 19.4 °F 10.4 °F 15.8 °F 86% 29.83 in 20.0 mi NNE 6.9 mph - N/A Snow Light Snow
10:00 PM 19.4 °F 11.5 °F 17.6 °F 93% 29.82 in 10.0 mi NE 5.8 mph - N/A Snow Light Snow
11:00 PM 19.4 °F 10.4 °F 15.8 °F 86% 29.81 in 10.0 mi NNE 6.9 mph - N/A Snow Light Snow